User: anonymous   Login
Location: Brahman Valley
(40.6513°N, 111.8855°W)
Time: 13:27:48
(UTC+00:00)
Language:

COSMOS 2251 DEB - Orbit

View from above orbital plane
View from above orbital plane
View from above satellite
View from above satellite

Ground track
Ground track

The orbit data is extracted from the following two-line orbital elements,

1 33798U 93036AP  21267.06807446  .00000073  00000-0  29327-4 0  9991
2 33798  74.0289 118.7397 0096013 257.5374 221.2559 14.42208883663821
Epoch (UTC): 24 September 2021 01:38:01
Eccentricity: 0.0096013
inclination: 74.0289°
perigee height: 683 km
apogee height: 819 km
right ascension of ascending node: 118.7397°
argument of perigee: 257.5374°
revolutions per day: 14.42208883
mean anomaly at epoch: 221.2559°
orbit number at epoch: 66382

The dashed part of the orbit path shows where the satellite is in the earth's shadow,  

DLR